| time (UTC) | temp F | wind direction | speed knots | gust knots | rain 1hr in | rain 24hr in | rain mn in | humidity % | barometer mb |
| 20260510101528 | 54 | 338 | 0.0 | 0.9 | 0.00 | 0.00 | 0.00 | 70 | 1013.6 |
| 20260510100019 | 54 | 338 | 0.0 | 1.7 | 0.00 | 0.00 | 0.00 | 71 | 1013.4 |
| 20260510094512 | 54 | 323 | 0.0 | 1.7 | 0.00 | 0.00 | 0.00 | 72 | 1013.2 |
| 20260510093009 | 54 | 328 | 0.0 | 2.6 | 0.00 | 0.00 | 0.00 | 72 | 1012.9 |
| 20260510091508 | 54 | 306 | 0.0 | 1.7 | 0.00 | 0.00 | 0.00 | 72 | 1013.1 |
| 20260510090011 | 55 | 296 | 0.0 | 0.9 | 0.00 | 0.00 | 0.00 | 70 | 1013.0 |
| 20260510084508 | 55 | 271 | 0.0 | 0.9 | 0.00 | 0.00 | 0.00 | 68 | 1013.2 |
| 20260510083005 | 55 | 266 | 0.0 | 0.9 | 0.00 | 0.00 | 0.00 | 65 | 1012.8 |
| 20260510081602 | 55 | 326 | 0.0 | 2.6 | 0.00 | 0.00 | 0.00 | 63 | 1012.3 |
| 20260510080054 | 55 | 309 | 0.0 | 3.5 | 0.00 | 0.00 | 0.00 | 63 | 1012.0 |
| 20260510074551 | 56 | 338 | 0.0 | 2.6 | 0.00 | 0.00 | 0.00 | 62 | 1011.9 |
| 20260510073047 | 56 | 332 | 0.0 | 2.6 | 0.00 | 0.00 | 0.00 | 62 | 1011.9 |
| 20260510071547 | 56 | 336 | 0.0 | 2.6 | 0.00 | 0.00 | 0.00 | 63 | 1012.0 |
| 20260510070049 | 56 | 296 | 0.0 | 3.5 | 0.00 | 0.00 | 0.00 | 62 | 1012.0 |
| 20260510064545 | 57 | 297 | 0.0 | 2.6 | 0.00 | 0.00 | 0.00 | 61 | 1011.9 |
| 20260510063041 | 57 | 263 | 0.0 | 3.5 | 0.00 | 0.00 | 0.00 | 61 | 1011.9 |
| 20260510061538 | 57 | 319 | 0.0 | 3.5 | 0.00 | 0.00 | 0.00 | 61 | 1011.5 |
| 20260510060037 | 57 | 320 | 0.0 | 2.6 | 0.00 | 0.00 | 0.00 | 61 | 1011.3 |
| 20260510054534 | 58 | 326 | 1.7 | 4.3 | 0.00 | 0.00 | 0.00 | 60 | 1011.3 |
| 20260510053032 | 58 | 316 | 0.0 | 2.6 | 0.00 | 0.00 | 0.00 | 61 | 1011.3 |
| 20260510051528 | 58 | 268 | 0.0 | 2.6 | 0.00 | 0.00 | 0.00 | 62 | 1011.0 |
| 20260510050030 | 58 | 284 | 0.0 | 0.9 | 0.00 | 0.00 | 0.00 | 61 | 1010.8 |
| 20260510044522 | 59 | 286 | 0.0 | 1.7 | 0.00 | 0.00 | 0.00 | 59 | 1010.5 |
| 20260510043018 | 60 | 288 | 0.0 | 5.2 | 0.00 | 0.00 | 0.00 | 58 | 1010.3 |
| 20260510041516 | 61 | 318 | 3.5 | 7.8 | 0.00 | 0.00 | 0.00 | 56 | 1010.1 |
| 20260510040011 | 62 | 4 | 3.5 | 10.4 | 0.00 | 0.00 | 0.00 | 56 | 1009.8 |
| 20260510034516 | 63 | 284 | 3.5 | 9.6 | 0.00 | 0.00 | 0.00 | 56 | 1009.7 |
| 20260510033005 | 64 | 296 | 2.6 | 8.7 | 0.00 | 0.00 | 0.00 | 55 | 1009.3 |
| 20260510031601 | 65 | 278 | 1.7 | 7.0 | 0.00 | 0.00 | 0.00 | 55 | 1009.0 |
| 20260510030058 | 66 | 211 | 3.5 | 11.3 | 0.00 | 0.00 | 0.00 | 58 | 1008.7 |
| 20260510024604 | 66 | 243 | 1.7 | 7.8 | 0.00 | 0.00 | 0.00 | 60 | 1008.4 |
| 20260510023054 | 66 | 249 | 0.9 | 7.0 | 0.00 | 0.00 | 0.00 | 65 | 1008.1 |
| 20260510021551 | 67 | 264 | 1.7 | 7.0 | 0.00 | 0.00 | 0.00 | 67 | 1007.9 |
| 20260510020053 | 67 | 217 | 1.7 | 5.2 | 0.00 | 0.00 | 0.00 | 70 | 1007.7 |
| 20260510014549 | 67 | 248 | 2.6 | 7.0 | 0.00 | 0.00 | 0.00 | 71 | 1007.5 |
| 20260510013047 | 67 | 251 | 3.5 | 7.8 | 0.00 | 0.00 | 0.00 | 70 | 1007.2 |
| 20260510011546 | 67 | 254 | 1.7 | 6.1 | 0.00 | 0.00 | 0.00 | 69 | 1006.9 |
| 20260510010044 | 68 | 242 | 2.6 | 7.8 | 0.00 | 0.00 | 0.00 | 68 | 1006.8 |
| 20260510004543 | 68 | 262 | 2.6 | 10.4 | 0.00 | 0.00 | 0.00 | 67 | 1006.6 |
| 20260510003054 | 68 | 228 | 2.6 | 8.7 | 0.00 | 0.00 | 0.00 | 67 | 1006.2 |
| 20260510001538 | 69 | 229 | 3.5 | 10.4 | 0.00 | 0.00 | 0.00 | 67 | 1006.0 |
| 20260510000039 | 70 | 259 | 3.5 | 11.3 | 0.00 | 0.00 | 0.00 | 64 | 1006.0 |
| 20260509234541 | 71 | 282 | 3.5 | 10.4 | 0.00 | 0.00 | 0.00 | 62 | 1005.9 |
| 20260509233036 | 72 | 234 | 5.2 | 14.8 | 0.00 | 0.00 | 0.00 | 60 | 1005.8 |
| 20260509231530 | 72 | 245 | 8.7 | 16.5 | 0.00 | 0.00 | 0.00 | 58 | 1005.8 |
| 20260509230032 | 71 | 242 | 3.5 | 12.2 | 0.00 | 0.00 | 0.00 | 59 | 1005.8 |
| 20260509224543 | 72 | 205 | 4.3 | 12.2 | 0.00 | 0.01 | 0.00 | 57 | 1005.7 |
| 20260509223027 | 71 | 216 | 7.8 | 13.9 | 0.00 | 0.01 | 0.00 | 58 | 1005.7 |
| 20260509221527 | 71 | 249 | 6.1 | 14.8 | 0.00 | 0.01 | 0.00 | 58 | 1005.6 |
| 20260509220023 | 71 | 228 | 7.0 | 16.5 | 0.00 | 0.01 | 0.00 | 57 | 1005.6 |
| 20260509214523 | 71 | 255 | 5.2 | 14.8 | 0.00 | 0.11 | 0.00 | 60 | 1005.4 |
| 20260509213020 | 72 | 224 | 7.8 | 19.1 | 0.00 | 0.11 | 0.00 | 57 | 1005.2 |
| 20260509211518 | 72 | 233 | 10.4 | 20.9 | 0.00 | 0.11 | 0.00 | 55 | 1005.3 |
| 20260509210018 | 72 | 201 | 7.8 | 21.7 | 0.00 | 0.11 | 0.00 | 58 | 1005.3 |
| 20260509204514 | 72 | 210 | 2.6 | 19.1 | 0.00 | 0.18 | 0.00 | 59 | 1005.4 |
| 20260509203012 | 72 | 292 | 7.8 | 20.0 | 0.00 | 0.18 | 0.00 | 57 | 1005.5 |
| 20260509201509 | 72 | 214 | 9.6 | 20.9 | 0.00 | 0.18 | 0.00 | 56 | 1005.6 |
| 20260509200009 | 72 | 259 | 7.8 | 17.4 | 0.00 | 0.18 | 0.00 | 56 | 1005.6 |
| 20260509194505 | 72 | 272 | 8.7 | 20.0 | 0.00 | 0.22 | 0.00 | 58 | 1005.7 |
| 20260509193007 | 71 | 214 | 8.7 | 19.1 | 0.00 | 0.22 | 0.00 | 60 | 1005.8 |
| 20260509191558 | 71 | 160 | 7.8 | 18.2 | 0.00 | 0.22 | 0.00 | 61 | 1005.9 |
| 20260509190057 | 70 | 233 | 6.1 | 20.0 | 0.00 | 0.22 | 0.00 | 64 | 1006.0 |
| 20260509184552 | 70 | 158 | 7.0 | 19.1 | 0.00 | 0.22 | 0.00 | 64 | 1006.1 |
| 20260509183051 | 70 | 229 | 7.8 | 17.4 | 0.00 | 0.22 | 0.00 | 64 | 1006.0 |
| 20260509181605 | 69 | 212 | 7.8 | 17.4 | 0.00 | 0.22 | 0.00 | 65 | 1006.1 |
| 20260509180110 | 68 | 214 | 10.4 | 19.1 | 0.00 | 0.22 | 0.00 | 65 | 1006.3 |
| 20260509174541 | 68 | 191 | 8.7 | 20.0 | 0.00 | 0.22 | 0.00 | 66 | 1006.6 |
| 20260509173043 | 68 | 193 | 7.8 | 19.1 | 0.00 | 0.22 | 0.00 | 67 | 1006.7 |
| 20260509171541 | 67 | 271 | 8.7 | 18.2 | 0.00 | 0.22 | 0.00 | 67 | 1006.7 |
| 20260509170045 | 67 | 152 | 8.7 | 19.1 | 0.00 | 0.22 | 0.00 | 69 | 1006.7 |
| 20260509164529 | 66 | 211 | 7.8 | 18.2 | 0.00 | 0.22 | 0.00 | 68 | 1006.4 |
| 20260509163027 | 66 | 240 | 4.3 | 16.5 | 0.00 | 0.22 | 0.00 | 71 | 1006.7 |
| 20260509161521 | 65 | 240 | 4.3 | 15.6 | 0.00 | 0.22 | 0.00 | 73 | 1006.7 |
| 20260509160020 | 65 | 221 | 7.8 | 13.0 | 0.00 | 0.22 | 0.00 | 72 | 1006.7 |
| 20260509154517 | 64 | 197 | 5.2 | 13.0 | 0.00 | 0.22 | 0.00 | 74 | 1006.8 |
| 20260509153017 | 64 | 223 | 7.8 | 13.9 | 0.00 | 0.22 | 0.00 | 73 | 1006.7 |
| 20260509151509 | 63 | 217 | 6.1 | 13.9 | 0.00 | 0.22 | 0.00 | 75 | 1006.8 |
| 20260509150008 | 62 | 210 | 5.2 | 13.9 | 0.00 | 0.22 | 0.00 | 76 | 1006.8 |
| 20260509144504 | 61 | 259 | 5.2 | 12.2 | 0.00 | 0.26 | 0.00 | 77 | 1007.0 |
| 20260509143110 | 61 | 271 | 4.3 | 13.0 | 0.00 | 0.26 | 0.00 | 79 | 1007.0 |
| 20260509141556 | 60 | 281 | 4.3 | 14.8 | 0.00 | 0.26 | 0.00 | 81 | 1007.2 |
| 20260509140056 | 59 | 210 | 1.7 | 11.3 | 0.00 | 0.26 | 0.00 | 83 | 1007.2 |
| 20260509134550 | 58 | 250 | 0.0 | 7.8 | 0.00 | 0.26 | 0.00 | 85 | 1007.1 |
| 20260509133057 | 57 | 249 | 1.7 | 11.3 | 0.00 | 0.26 | 0.00 | 86 | 1007.2 |
| 20260509131541 | 57 | 197 | 4.3 | 9.6 | 0.00 | 0.26 | 0.00 | 89 | 1007.3 |
| 20260509130040 | 56 | 248 | 2.6 | 8.7 | 0.00 | 0.26 | 0.00 | 90 | 1007.2 |
| 20260509124536 | 55 | 223 | 1.7 | 6.1 | 0.00 | 0.26 | 0.00 | 91 | 1007.2 |
| 20260509123034 | 55 | 251 | 1.7 | 9.6 | 0.00 | 0.26 | 0.00 | 91 | 1007.6 |
| 20260509121532 | 54 | 215 | 2.6 | 9.6 | 0.00 | 0.26 | 0.00 | 91 | 1007.7 |
| 20260509120026 | 54 | 236 | 2.6 | 7.0 | 0.00 | 0.26 | 0.00 | 92 | 1007.8 |
| 20260509114532 | 54 | 278 | 5.2 | 10.4 | 0.00 | 0.26 | 0.00 | 93 | 1007.6 |
| 20260509113021 | 54 | 105 | 1.7 | 9.6 | 0.00 | 0.26 | 0.00 | 93 | 1007.5 |
| 20260509111518 | 53 | 242 | 3.5 | 7.8 | 0.00 | 0.26 | 0.00 | 94 | 1007.1 |
| 20260509110017 | 53 | 240 | 3.5 | 7.8 | 0.00 | 0.26 | 0.00 | 94 | 1007.1 |
| 20260509104516 | 53 | 224 | 1.7 | 5.2 | 0.00 | 0.26 | 0.00 | 94 | 1007.2 |
| 20260509103014 | 53 | 218 | 0.9 | 5.2 | 0.00 | 0.26 | 0.00 | 94 | 1007.1 |